Regional Weather Roundup
Issued by NWS

Home | Current Version | Previous Version | Text Only | Print | Product List | Glossary Off
Versions: 1 2 3 4 5 6 7 8 9 10 11 12 13 14 15 16 17 18 19 20 21 22 23 24 25 26 27 28 29 30 31 32 33 34 35 36 37 38 39 40 41 42 43 44 45 46 47 48 49 50

000
ASUS43 KFSD 280010
RWRSD

WEATHER ROUNDUP FOR SOUTH DAKOTA
NATIONAL WEATHER SERVICE SIOUX FALLS SD
700 PM CDT THU APR 27 2017

NOTE: "FAIR" INDICATES FEW OR NO CLOUDS BELOW 12,000 FEET WITH NO
SIGNIFICANT WEATHER AND/OR OBSTRUCTIONS TO VISIBILITY.


SDZ001>005-009-010-012>017-280100-
NORTHWEST AND NORTH CENTRAL SOUTH DAKOTA

CITY           SKY/WX    TMP DP  RH WIND       PRES   REMARKS
BUFFALO          N/A     48  27  44 E12       29.62R
FAITH            N/A     49  29  46 E13       29.68R
MOBRIDGE       SUNNY     55  24  30 N12       29.67R
$$

SDZ012>016-024>037-041>051-057-063-072>074-280100-
SOUTHWEST AND SOUTH CENTRAL SOUTH DAKOTA

CITY           SKY/WX    TMP DP  RH WIND       PRES   REMARKS
RAPID CTY ARPT CLOUDY    45  32  60 E9        29.65R
PIERRE         SUNNY     50  30  46 E7        29.69R
CUSTER         CLOUDY    33  29  85 NE10      29.61R WCI  25
ELLSWORTH AFB  CLOUDY    45  32  59 E10       29.65R
PHILIP         SUNNY     47  32  56 E9        29.69R
PINE RIDGE     LGT RAIN  47  39  74 SE9       29.62R
SPEARFISH      FAIR      41  34  75 E18       29.65R
WINNER         FAIR      54  32  43 NE7       29.68R
$$

SDZ004>011-016>023-039-040-280100-
NORTHEAST SOUTH DAKOTA

CITY           SKY/WX    TMP DP  RH WIND       PRES   REMARKS
ABERDEEN       SUNNY     50  27  40 N15       29.71R
WATERTOWN      PTSUNNY   41  29  62 N15       29.71R
BROOKINGS      SUNNY     43  28  55 N14       29.71R
SISSETON         N/A     41  30  65 NE8       29.71R
$$

SDZ017-020-022-023-036>040-048>070-280100-
SOUTHEAST SOUTH DAKOTA

CITY           SKY/WX    TMP DP  RH WIND       PRES   REMARKS
SIOUX FALLS    MOSUNNY   50  32  50 N12       29.70R
HURON          SUNNY     49  29  46 NE10      29.71R
CHAMBERLAIN    SUNNY     53  32  46 N3        29.69R
MITCHELL       SUNNY     51  31  46 NE6       29.71R
YANKTON        SUNNY     52  30  43 N6        29.70R
$$

ABBREVIATIONS USED IN REMARKS
   TC - TEMPERATURE IN CELSIUS
  WCI - WIND CHILL INDEX
   HX - HEAT INDEX
  VSB - VISIBILITY




USA.gov is the U.S. government's official web portal to all federal, state and local government web resources and services.